星链-31873 (STARLINK-31873 )

导读 | 豆包AI

STARLINK-31873是美国于2024年5月18日发射的星链卫星,隶属于SpaceX公司的星链星座项目。星链计划旨在构建全球卫星互联网星座,提供覆盖全球的高速互联网接入服务,该卫星入轨后将参与星座组网,进一步扩展星链星座的服务覆盖范围与通信能力。

Basic Information
目录编号:
59790
目录名称:
STARLINK-31873
国际标识:
2024-093J
轨道中心:
EARTH
卫星名称:
星链-31873
卫星全名:
星链-31873 (STARLINK-31873 )
卫星状态:
在轨 (已飞行713 天)
发射日期:
2024-05-18 UTC
国别 :
美国 (US)
星等 :
--
Orbit Information
数据来源 国际轨道数据 AOE轨道数据
星历时间 2026-04-30T18:52:12+0800
16小时前
查看轨道信息
2026-04-26T03:00:00+0800
5天前
查看轨道信息
半长轴 6861.136km 6861.163km
偏心率 0.0002314 0.0001286
轨道倾角 43.002° 43.002°
近地点辐角 276.694° 255.894°
升交点赤经 276.417° 302.747°
平近点角 83.365° 0.588°
近地点 481.411km 482.143km
远地点 484.587km 483.909km
周期 94.266分钟 94.266分钟
每日圈数 15.275968 15.275879
Detailed Information
固有亮度:
5
最大亮度:
1.5
卫星平台:
Starlink v2.0 mini
覆盖范围:
全球
运营商:
太空探索技术公司
运营商所在国:
美国
制造商(研发单位):
太空探索技术公司
制造商所在国:
美国
使用方式:
暂无
Satellite Introduction
星链(Starlink)计划是由太空探索技术公司(SpaceX)提出的一个巨型低轨卫星互联网星座项目,计划在2019年至2024年间在太空搭建由约1.2万颗卫星组成的“星链”网络,其中1584颗将部署在地球上空550千米处的近地轨道,并从2020年开始工作。该卫星仍在工作。
2D Orbit Map
3D Orbit Map
Orbit Altitude Analysis Chart
Orbit Inclination Analysis Chart
Orbit Comprehensive Analysis Chart
View Comprehensive Chart